STARLINK-30965, 58477

Orbit data source: Space-Track

STARLINK-30965, 58477 is a payload satellite owned by SpaceX/Seattle (US) in LEO that was launched on Sun, 03 Dec 2023 UTC via an FALCON 9 launch vehicle from the Air Force Eastern Test Range (AFETR). Payload-class satellites include a variety of spacecraft equipped with specific instruments for various scientific and technological missions. These include communications satellites like Starlink; space stations such as the ISS; scientific satellites like the Hubble; Earth observation satellites from companies like Planet Labs, Umbra, and HawkEye 360; GPS; miniature CubeSats for education and research; and military/defense satellites.

Loading next visibility...
Identifier
58477, 2023-186E
Orbit
LEO
Country
Flag of USUS
Related business
Manufacturer
SpaceX/Seattle
Mission
Operational Commercial Communications
Bus & Motor
STARLINK V2M, Unknown motor
Mass
730 kg wet, ~700 kg dry
Launch date (UTC)
2023-12-03 (3 years ago)
Launch vehicle
FALCON 9
Launch site
Air Force Eastern Test Range (AFETR)
Object type
Payload
Rocket body
Debris
Shape & HBR
Box + 2 Pan, 17.7 m
Radar Cross Section
33.884 m², Large (>1 m²)

Expand to show TLE details & history
Last TLE update: 2 days ago

TLE from 2 days ago
0 STARLINK-30965
1 58477U 23186E   26171.05584541  .00000083  00000-0  12555-4 0  9993
2 58477  43.0024 194.0854 0001662 272.0786  87.9876 15.27579568141684
Epoch: 2026-06-20T01:20Z
TLE epoch observation values (Epoch: 2026-06-20T01:20:25.043Z)
Latitude
0.00003°
Longitude
-94.29487°
Altitude
482.786 km
Speed
7.626 km/s
True Right ascension
12h 56m 20s
True Declination
0° 00' 00"
Sunlit
Object was in daylight at epoch
Visualization orbit readout
Latitude
Unknown
Longitude
Unknown
Altitude
Unknown
Speed
Unknown
Apparent Right ascension
Unknown
Apparent Declination
Unknown
Sunlit
N/A
Visualization observer readout
Local Sidereal Time
21:23:39
Azimuth
Unknown
Elevation
Unknown
Doppler factor
Unknown
Orbital elements
Apogee altitude
486.136 km
Perigee altitude
483.855 km
Semi-major axis
6,863.132 km
Eccentricity
0.00017
Inclination
43.0024°
RAAN
194.0854°
Arg. of periapsis
272.0786°
True anomaly
88.00663°
Mean anomaly
87.9876°
Eccentric anomaly
87.99712°
Mean motion
3.81733 °/min
Orbital period
94.31 mins
BSTAR
0.000012555
Loading maneuver chart data...
Computing Atmospheric mass density...
Loading historical data...
Loading historical data...
Loading historical data...
Loading historical data...
Loading historical data...
Loading historical data...
Loading historical data...

Documentation

Showing up to 5 results
|